EW1707 Weather Reports


Display with metric or nautical units.
time (UTC)temp
F
wind
direction
speed
MPH
gust
MPH
rain 1hr
in
rain 24hr
in
rain mn
in
humidity
%
barometer
mb
20221003074601 47 360 2.0 6.0 0.00 0.00 0.00 65 1020.6
20221003073059 47 360 1.0 9.0 0.00 0.00 0.00 65 1020.5
20221003071551 48 360 4.0 11.0 0.00 0.00 0.00 64 1020.7
20221003070053 48 360 7.0 15.0 0.00 0.00 0.00 62 1020.9
20221003064550 47 360 7.0 13.0 0.00 0.00 0.00 63 1020.9
20221003063046 47 360 5.0 11.0 0.00 0.00 0.00 65 1021.0
20221003061543 47 298 6.0 12.0 0.00 0.00 0.00 65 1021.3
20221003060045 47 261 2.0 4.0 0.00 0.00 0.00 70 1021.3
20221003054537 47 261 0.0 3.0 0.00 0.00 0.00 67 1021.6
20221003053041 47 261 2.0 7.0 0.00 0.00 0.00 66 1021.7
20221003051540 47 360 4.0 10.0 0.00 0.00 0.00 66 1021.8
20221003050036 47 360 6.0 12.0 0.00 0.00 0.00 65 1021.9
20221003044547 47 360 7.0 14.0 0.00 0.00 0.00 65 1021.9
20221003043038 47 360 7.0 16.0 0.00 0.00 0.00 65 1022.0
20221003041536 48 360 7.0 15.0 0.00 0.00 0.00 65 1022.0
20221003040042 48 360 9.0 14.0 0.00 0.00 0.00 64 1022.1
20221003034536 48 284 7.0 14.0 0.00 0.00 0.00 64 1022.1
20221003033034 49 360 8.0 15.0 0.00 0.00 0.00 63 1022.2
20221003031541 49 297 7.0 16.0 0.00 0.00 0.00 63 1022.4
20221003030033 49 360 5.0 12.0 0.00 0.00 0.00 62 1022.2
20221003024532 49 360 5.0 13.0 0.00 0.00 0.00 64 1021.9
20221003023035 49 360 6.0 15.0 0.00 0.00 0.00 64 1021.7
20221003021531 49 360 8.0 17.0 0.00 0.00 0.00 66 1021.5
20221003020032 49 265 4.0 10.0 0.00 0.00 0.00 66 1021.3
20221003014531 49 360 6.0 15.0 0.00 0.00 0.00 67 1021.3
20221003013030 50 360 1.0 5.0 0.00 0.00 0.00 69 1021.2
20221003011530 50 360 2.0 6.0 0.00 0.00 0.00 68 1021.4
20221003010030 51 123 1.0 4.0 0.00 0.00 0.00 70 1021.3
20221003004529 52 123 1.0 7.0 0.00 0.00 0.00 67 1021.0
20221003003038 53 34 0.0 1.0 0.00 0.00 0.00 68 1021.2
20221003001529 53 34 0.0 1.0 0.00 0.00 0.00 68 1021.2
20221003000027 53 34 0.0 0.0 0.00 0.00 0.00 67 1021.1
20221002234529 54 34 0.0 0.0 0.00 0.00 0.00 65 1021.2
20221002233027 54 33 0.0 1.0 0.00 0.00 0.00 65 1021.4
20221002231529 54 34 0.0 3.0 0.00 0.00 0.00 64 1021.2
20221002230025 55 34 0.0 5.0 0.00 0.00 0.00 61 1021.1
20221002224525 55 32 1.0 6.0 0.00 0.00 0.00 60 1021.2
20221002223023 56 28 0.0 5.0 0.00 0.00 0.00 62 1021.2
20221002221534 56 24 2.0 8.0 0.00 0.00 0.00 59 1021.3
20221002220036 57 35 0.0 5.0 0.00 0.00 0.00 59 1021.4
20221002214522 57 36 0.0 7.0 0.00 0.01 0.00 58 1021.4
20221002213021 58 54 1.0 5.0 0.00 0.01 0.00 58 1021.4
20221002211519 57 55 2.0 6.0 0.00 0.01 0.00 59 1021.4
20221002210019 57 38 3.0 6.0 0.00 0.01 0.00 58 1021.5
20221002204518 57 38 2.0 5.0 0.00 0.01 0.00 59 1021.4
20221002203029 58 35 4.0 8.0 0.00 0.01 0.00 55 1021.5
20221002201516 59 22 2.0 11.0 0.00 0.01 0.00 55 1021.5
20221002200024 59 360 2.0 8.0 0.00 0.01 0.00 52 1021.7
20221002194522 59 360 4.0 10.0 0.00 0.01 0.00 46 1021.9
20221002193014 59 360 4.0 8.0 0.00 0.01 0.00 48 1022.1
20221002191509 59 284 1.0 4.0 0.00 0.01 0.00 51 1022.3
20221002190009 58 281 0.0 8.0 0.00 0.01 0.00 50 1022.4
20221002184503 57 360 1.0 4.0 0.00 0.01 0.00 54 1022.6
20221002183132 56 360 0.0 4.0 0.00 0.01 0.00 53 1022.8
20221002181602 55 360 1.0 4.0 0.00 0.01 0.00 58 1022.8
20221002180101 54 360 0.0 5.0 0.00 0.01 0.00 56 1023.1
20221002174554 53 360 3.0 9.0 0.00 0.01 0.00 58 1023.1
20221002173058 52 360 4.0 9.0 0.00 0.01 0.00 61 1023.2
20221002171546 51 360 5.0 15.0 0.00 0.01 0.00 64 1023.4
20221002170045 51 360 8.0 12.0 0.00 0.01 0.00 66 1023.5
20221002164544 50 360 6.0 11.0 0.00 0.01 0.00 66 1023.5
20221002163047 49 360 5.0 12.0 0.00 0.01 0.00 70 1023.6
20221002161543 48 360 6.0 12.0 0.00 0.01 0.00 70 1023.6
20221002160049 47 360 5.0 11.0 0.00 0.01 0.00 72 1023.5
20221002154543 47 301 2.0 14.0 0.00 0.01 0.00 76 1023.5
20221002153052 48 155 1.0 4.0 0.00 0.01 0.00 75 1023.4
20221002151554 48 155 1.0 12.0 0.00 0.01 0.00 69 1023.6
20221002150042 47 360 4.0 22.0 0.00 0.01 0.00 69 1023.8
20221002144543 48 360 10.0 17.0 0.00 0.01 0.00 68 1023.4
20221002143056 48 360 7.0 21.0 0.00 0.01 0.00 66 1023.2
20221002141546 48 360 7.0 14.0 0.00 0.01 0.00 66 1023.6
20221002140037 50 360 7.0 17.0 0.00 0.01 0.00 59 1023.7
20221002134537 51 360 6.0 15.0 0.00 0.01 0.00 58 1023.3
20221002133038 51 360 10.0 16.0 0.00 0.01 0.00 53 1022.9
20221002131533 51 360 6.0 14.0 0.00 0.01 0.00 53 1022.5
20221002130033 50 360 3.0 9.0 0.00 0.01 0.00 56 1022.4
20221002124542 50 304 4.0 9.0 0.00 0.01 0.00 58 1022.2
20221002123031 50 360 2.0 11.0 0.00 0.01 0.00 57 1022.3
20221002121537 50 360 3.0 7.0 0.00 0.01 0.00 59 1022.2
20221002120034 50 360 4.0 7.0 0.00 0.01 0.00 60 1022.3
20221002114528 49 360 4.0 11.0 0.00 0.01 0.00 60 1022.2
20221002113028 48 360 2.0 9.0 0.00 0.01 0.00 65 1022.3
20221002111524 47 360 1.0 7.0 0.00 0.01 0.00 62 1022.4
20221002110036 48 360 0.0 9.0 0.00 0.01 0.00 65 1022.4
20221002104524 47 360 5.0 12.0 0.00 0.01 0.00 63 1022.1
20221002103031 47 360 3.0 7.0 0.00 0.01 0.00 66 1022.1
20221002101520 47 360 0.0 6.0 0.00 0.01 0.00 67 1022.3
20221002100023 47 360 4.0 8.0 0.00 0.01 0.00 65 1022.5